[[{"header":{"parameterUnit":"m.s-1","parameterCategory":1,"la1":30.2991,"la2":30.254,"lo1":-89.0895,"lo2":-89.0444,"dy":0.0017,"dx":0.0017,"nx":28,"ny":28,"refTime":"2025-01-10T09:00:00:Z","depth":0,"parameterNumber":2,"parameterNumberName":"U-component_of_WINDS"},"data":[0,0,0,0,0,0,0,0,0,0,0,0,0,0,0,0,0,0,0,0,0,0,0,0,0,0,0,0,0,0,0,0,0,0,0,0,0,0,0,0,0,0,0,0,0,0,0,0,0,0,0,0,0,0,0,0,0,0,5.4252,5.4254,0,5.4409,5.4411,5.4413,5.4371,5.4368,5.4365,5.4362,5.4523,5.453,5.4538,0,0,0,0,0,0,0,0,0,0,0,0,0,5.3919,5.3925,5.4252,5.4254,5.4256,5.4409,5.4411,5.4413,5.4372,5.4368,5.4364,5.436,5.4521,5.453,5.4538,0,0,0,0,0,0,0,0,0,0,0,0,0,5.4069,5.3928,5.4252,5.4254,5.4256,5.4408,5.4411,5.4414,5.4372,5.4368,5.4363,5.4359,5.4518,5.4529,5.4539,5.47,0,0,5.4573,5.4577,0,0,0,0,0,0,0,0,5.406,5.4081,5.4252,5.4254,5.4256,5.4366,5.4353,5.451,5.4374,5.4328,5.4362,5.4356,5.4475,5.4489,5.4529,5.4708,5.4715,5.4574,5.458,5.4585,5.4588,0,0,0,0,0,0,0,5.405,5.4074,5.4314,5.4254,5.4257,5.4248,5.4264,5.4382,5.4426,5.4332,5.4329,5.4348,5.4475,5.4518,5.4532,5.4717,5.4573,5.4583,5.459,5.4594,5.5038,5.5043,0,0,0,0,0,0,5.4038,5.4066,5.4309,5.4319,5.4145,5.4257,5.4275,5.4335,5.4424,5.4434,5.4352,5.4346,5.4502,5.452,5.4538,5.4733,5.4585,5.4595,5.4601,5.5033,5.5039,5.5045,0,0,0,0,0,0,5.4031,5.406,5.4303,5.4192,5.4222,5.4268,5.4336,5.4341,5.4384,5.444,5.4447,5.4388,5.4499,5.4522,5.466,5.4738,5.46,5.461,5.5026,5.5035,5.5042,5.5124,0,0,0,0,0,0,5.4021,5.4057,5.4118,5.4193,5.4228,5.4423,5.4341,5.4347,5.4403,5.4396,5.4476,5.4484,5.4497,5.4645,5.4671,5.475,5.4618,5.502,5.503,5.5039,5.5115,5.5134,5.515,0,0,0,0,0,5.4009,5.4135,5.4122,5.4151,5.4305,5.4427,5.4447,5.4459,5.4409,5.4471,5.4507,5.4482,5.4725,5.4659,5.4689,5.4772,5.5015,5.5027,5.5039,5.5107,5.513,5.515,0,0,0,0,0,0,5.4068,5.4145,5.4131,5.4284,5.435,5.442,5.4499,5.4483,5.4564,5.4555,5.4566,5.4585,5.4726,5.4763,5.4688,5.4933,5.4863,5.4881,5.4904,5.4927,5.4944,5.4933,5.4627,0,0,0,0,0,5.4099,5.4191,5.4253,5.4383,5.4417,5.4452,5.4506,5.451,5.4578,5.4605,5.4651,5.4719,5.481,5.4871,5.4958,5.512,5.5137,5.5192,5.521,5.5224,5.524,5.5329,5.5355,5.5084,5.5084,5.5084,0,0,5.4164,5.4217,5.4274,5.4396,5.4447,5.4543,5.4476,5.458,5.4651,5.4621,5.4754,5.4791,5.4867,5.5018,5.5087,5.5053,5.5319,5.5239,5.525,5.5258,5.5344,5.537,5.5393,5.5092,5.5091,5.5089,0,0,5.4331,5.438,5.4494,5.4546,5.4624,5.4648,5.4675,5.4748,5.4771,5.4905,5.4885,5.4971,5.5128,5.5184,5.5233,5.5422,5.5402,5.5451,5.5544,5.5631,5.5652,5.5671,5.574,5.5764,5.5466,5.5466,5.5467,0,5.4401,5.4544,5.4554,5.4661,5.4716,5.4693,5.4809,5.4859,5.4962,5.5001,5.4962,5.516,5.5209,5.5374,5.542,5.546,5.5493,5.5441,5.5648,5.5667,5.5685,5.5751,5.5777,5.5472,5.5471,5.5471,5.547,0,5.4628,5.4728,5.4811,5.4911,5.4975,5.5085,5.5113,5.5177,5.5176,5.5203,5.5341,5.54,5.5499,5.5538,5.5538,5.5704,5.568,5.5645,5.5574,5.5716,5.5778,5.5803,5.548,5.5478,5.5476,5.5475,0,0,5.4836,5.494,5.4971,5.5016,5.5102,5.5179,5.529,5.5387,5.5442,5.5514,5.5608,5.5742,5.571,5.5766,5.5772,5.5848,5.5996,5.5803,5.5805,5.5838,5.6184,5.621,5.6239,5.5983,5.5988,5.5992,5.6177,0,5.5011,5.5204,5.5217,5.5393,5.5486,5.5466,5.5563,5.5626,5.5655,5.5739,5.5771,5.5867,5.5816,5.585,5.5925,5.5962,5.6066,5.5949,5.6071,5.6076,5.6053,5.6271,5.63,5.6472,5.6202,5.6206,5.6209,0,5.5241,5.532,5.5505,5.5578,5.5617,5.5704,5.5795,5.5875,5.5946,5.5962,5.6025,5.6021,5.6135,5.606,5.6219,5.6139,5.619,5.6216,5.6223,5.6235,5.6151,5.629,5.6527,5.6553,5.6247,5.6244,5.6241,0,5.5375,5.5528,5.5658,5.5698,5.5786,5.5848,5.5887,5.5954,5.6013,5.6092,5.613,5.6223,5.6273,5.6345,5.6366,5.6309,5.6525,5.6451,5.6542,5.6542,5.6588,5.6585,5.6837,5.662,5.662,5.6619,5.6619,0,5.5569,5.5683,5.572,5.5801,5.5928,5.5942,5.6069,5.6105,5.6165,5.6253,5.6241,5.6324,5.6347,5.6434,5.6451,5.6581,5.6603,5.662,5.6623,5.6622,5.662,5.6655,5.6644,5.6626,5.6625,5.6623,5.6622,0,5.5741,5.577,5.5911,5.5983,5.6004,5.6095,5.6158,5.6236,5.6263,5.6375,5.6402,5.6446,5.6548,5.6576,5.6698,5.671,5.6863,5.6855,5.6838,5.6839,5.6928,5.6919,5.7212,5.7252,5.7008,5.7011,5.7013,0,5.5863,5.5951,5.6032,5.609,5.6133,5.6226,5.6285,5.6303,5.6366,5.6455,5.6522,5.6623,5.6705,5.687,5.6913,5.7007,5.7001,5.7098,5.7016,5.7011,5.7004,5.6999,5.7008,5.7113,5.7116,5.7118,5.712,0,5.6078,5.6088,5.6174,5.6265,5.6337,5.641,5.648,5.6528,5.6556,5.6627,5.6731,5.6795,5.692,5.7021,5.7116,5.7158,5.7145,5.7145,5.7171,5.717,5.7158,5.7167,5.6882,5.7138,5.7136,5.7135,5.7134,5.7133,5.6229,5.6306,5.6376,5.6473,5.6527,5.6593,5.667,5.6708,5.6795,5.6898,5.6904,5.7018,5.7089,5.7215,5.7262,5.7352,5.7324,5.7361,5.7371,5.738,5.7388,5.7143,5.7369,5.7369,5.7369,5.7368,5.7368,0,5.6444,5.6488,5.6576,5.6675,5.6751,5.6731,5.6808,5.6873,5.6973,5.704,5.7121,5.7242,5.734,5.7391,5.7489,5.7551,5.7547,5.7576,5.7572,5.7582,5.7407,5.7375,5.7578,5.7578,5.7578,5.7577,5.7577,5.7577,5.6565,5.6695,5.6713,5.6871,5.6914,5.7025,5.7071,5.7132,5.7186,5.7321,5.7403,5.7435,5.7497,5.7599,5.7688,5.7701,5.7738,5.777,5.778,5.7616,5.7594,5.7574,5.7544,5.7778,5.7778,5.7947,5.7949,5.795]},{"header":{"parameterUnit":"m.s-1","parameterCategory":1,"la1":30.2991,"la2":30.254,"lo1":-89.0895,"lo2":-89.0444,"dy":0.0017,"dx":0.0017,"nx":28,"ny":28,"refTime":"2025-01-10T09:00:00:Z","depth":0,"parameterNumber":3,"parameterNumberName":"V-component_of_WINDS"},"data":[0,0,0,0,0,0,0,0,0,0,0,0,0,0,0,0,0,0,0,0,0,0,0,0,0,0,0,0,0,0,0,0,0,0,0,0,0,0,0,0,0,0,0,0,0,0,0,0,0,0,0,0,0,0,0,0,0,0,-4.7734,-4.7736,0,-4.7927,-4.7929,-4.7931,-4.7924,-4.7922,-4.7919,-4.7916,-4.8116,-4.8123,-4.8131,0,0,0,0,0,0,0,0,0,0,0,0,0,-4.7361,-4.7368,-4.7733,-4.7736,-4.7738,-4.7926,-4.7929,-4.7932,-4.7925,-4.7921,-4.7918,-4.7915,-4.8113,-4.8122,-4.8132,0,0,0,0,0,0,0,0,0,0,0,0,0,-4.7535,-4.737,-4.7733,-4.7757,-4.7761,-4.7926,-4.7929,-4.7932,-4.7925,-4.7921,-4.7917,-4.7914,-4.811,-4.8121,-4.8133,-4.8286,0,0,-4.8169,-4.8174,0,0,0,0,0,0,0,0,-4.7525,-4.7549,-4.7751,-4.7756,-4.7761,-4.7897,-4.7871,-4.8051,-4.7926,-4.7863,-4.7916,-4.7912,-4.8046,-4.8063,-4.8108,-4.8295,-4.8304,-4.817,-4.8177,-4.8182,-4.8185,0,0,0,0,0,0,0,-4.7513,-4.754,-4.781,-4.7754,-4.776,-4.7759,-4.778,-4.7905,-4.7975,-4.7868,-4.7868,-4.7891,-4.8048,-4.8097,-4.8113,-4.8307,-4.8169,-4.818,-4.8187,-4.8192,-4.8631,-4.8635,0,0,0,0,0,0,-4.7496,-4.753,-4.7804,-4.7816,-4.7631,-4.7769,-4.7792,-4.7858,-4.7974,-4.7987,-4.7895,-4.789,-4.8079,-4.8099,-4.812,-4.8308,-4.8182,-4.8193,-4.8199,-4.8626,-4.8632,-4.8637,0,0,0,0,0,0,-4.7488,-4.752,-4.7796,-4.7673,-4.7708,-4.778,-4.7854,-4.7863,-4.7912,-4.7993,-4.8006,-4.7931,-4.8076,-4.8103,-4.8245,-4.8314,-4.8198,-4.8209,-4.8621,-4.8628,-4.8634,-4.8684,0,0,0,0,0,0,-4.7477,-4.7517,-4.7575,-4.7675,-4.7715,-4.7917,-4.7858,-4.787,-4.7932,-4.7928,-4.8031,-4.8044,-4.8075,-4.8227,-4.8257,-4.8328,-4.8218,-4.8615,-4.8624,-4.8632,-4.8676,-4.8692,-4.8705,0,0,0,0,0,-4.7464,-4.7582,-4.7578,-4.7611,-4.7789,-4.7921,-4.7944,-4.7977,-4.7938,-4.7998,-4.805,-4.8041,-4.8302,-4.8242,-4.8275,-4.8351,-4.8611,-4.8621,-4.8632,-4.867,-4.8689,-4.8704,0,0,0,0,0,0,-4.7489,-4.7595,-4.7593,-4.7746,-4.7825,-4.792,-4.7996,-4.7996,-4.8088,-4.808,-4.8117,-4.8141,-4.8283,-4.8331,-4.8262,-4.8506,-4.8451,-4.8469,-4.8469,-4.8488,-4.8502,-4.8487,-4.8227,0,0,0,0,0,-4.7512,-4.761,-4.7698,-4.7825,-4.7864,-4.7923,-4.7982,-4.8001,-4.8084,-4.8117,-4.818,-4.8262,-4.8362,-4.8428,-4.8525,-4.8683,-4.8706,-4.8752,-4.8766,-4.8777,-4.8792,-4.8881,-4.8903,-4.8671,-4.8671,-4.8671,0,0,-4.7561,-4.7632,-4.7691,-4.7832,-4.7895,-4.7996,-4.7951,-4.806,-4.8136,-4.8134,-4.8272,-4.8321,-4.8415,-4.8566,-4.8636,-4.861,-4.8861,-4.8791,-4.8799,-4.8808,-4.8894,-4.8916,-4.8936,-4.8678,-4.8677,-4.8676,0,0,-4.7703,-4.7766,-4.7879,-4.7943,-4.804,-4.8078,-4.8106,-4.8202,-4.8234,-4.8373,-4.8374,-4.8465,-4.8637,-4.8704,-4.8761,-4.893,-4.8926,-4.896,-4.9035,-4.9121,-4.9139,-4.9156,-4.9217,-4.9238,-4.8975,-4.8975,-4.8975,0,-4.7753,-4.7905,-4.7937,-4.8047,-4.811,-4.8112,-4.8228,-4.8289,-4.8412,-4.8456,-4.8426,-4.8643,-4.8706,-4.8873,-4.8915,-4.896,-4.8993,-4.8949,-4.9134,-4.9151,-4.9166,-4.9225,-4.9248,-4.8979,-4.8978,-4.8978,-4.8978,0,-4.7961,-4.8067,-4.8147,-4.8266,-4.8337,-4.8449,-4.85,-4.8568,-4.8581,-4.8623,-4.8766,-4.8842,-4.8955,-4.8996,-4.9009,-4.9166,-4.9148,-4.9126,-4.9071,-4.9192,-4.9248,-4.927,-4.8984,-4.8983,-4.8981,-4.8981,0,0,-4.8124,-4.826,-4.8289,-4.8343,-4.845,-4.8533,-4.8646,-4.8757,-4.8815,-4.89,-4.8997,-4.9143,-4.9124,-4.9188,-4.9209,-4.9285,-4.9415,-4.9254,-4.9257,-4.9282,-4.9595,-4.9611,-4.9636,-4.9413,-4.9418,-4.9421,-4.9587,0,-4.8277,-4.8477,-4.851,-4.8686,-4.8785,-4.8789,-4.8888,-4.8965,-4.9008,-4.9099,-4.9146,-4.925,-4.9216,-4.9255,-4.933,-4.9383,-4.9479,-4.9372,-4.9504,-4.9509,-4.9481,-4.9666,-4.9683,-4.9836,-4.9609,-4.9613,-4.9615,0,-4.8483,-4.8574,-4.8759,-4.8854,-4.8897,-4.8985,-4.9089,-4.9176,-4.9264,-4.929,-4.9362,-4.9375,-4.9494,-4.9434,-4.9599,-4.9526,-4.9582,-4.9617,-4.9623,-4.9637,-4.9569,-4.9685,-4.9885,-4.9908,-4.965,-4.9647,-4.9645,0,-4.8584,-4.8752,-4.8886,-4.8932,-4.9046,-4.9108,-4.9158,-4.9242,-4.9307,-4.9399,-4.9441,-4.9546,-4.9603,-4.9684,-4.9725,-4.9678,-4.9888,-4.9831,-4.9913,-4.9913,-4.9957,-4.9954,-5.017,-4.9993,-4.9992,-4.9992,-4.9991,0,-4.8752,-4.8866,-4.8933,-4.9014,-4.9142,-4.918,-4.9306,-4.9355,-4.943,-4.9522,-4.9533,-4.9619,-4.9668,-4.9762,-4.9795,-4.9927,-4.9953,-4.9978,-4.9986,-4.9978,-4.9975,-5.0015,-5.0006,-4.9998,-4.9997,-4.9996,-4.9995,0,-4.8886,-4.8936,-4.9081,-4.9177,-4.9204,-4.9294,-4.9377,-4.9458,-4.95,-4.9617,-4.9647,-4.9715,-4.9826,-4.9875,-5.0013,-5.0035,-5.0186,-5.0186,-5.0156,-5.0159,-5.0239,-5.0231,-5.0489,-5.0525,-5.0323,-5.0325,-5.0327,0,-4.8991,-4.9078,-4.9184,-4.9246,-4.9299,-4.9399,-4.9465,-4.9506,-4.9575,-4.9682,-4.975,-4.9862,-4.9953,-5.0132,-5.0194,-5.0299,-5.0302,-5.0385,-5.0318,-5.0308,-5.0305,-5.0299,-5.0309,-5.0397,-5.0399,-5.0401,-5.0402,0,-4.9171,-4.9191,-4.9286,-4.939,-4.9469,-4.9553,-4.9635,-4.9686,-4.9739,-4.9816,-4.993,-5.0002,-5.0142,-5.0254,-5.0363,-5.0416,-5.0419,-5.0423,-5.0448,-5.0441,-5.0421,-5.0434,-5.0191,-5.0417,-5.0415,-5.0414,-5.0414,-5.0413,-4.9294,-4.9373,-4.946,-4.9565,-4.9631,-4.9708,-4.9789,-4.9842,-4.9938,-5.0055,-5.0074,-5.0196,-5.0283,-5.0431,-5.0488,-5.0585,-5.0565,-5.06,-5.061,-5.0618,-5.0623,-5.0405,-5.0605,-5.0605,-5.0604,-5.0604,-5.0604,0,-4.9476,-4.9532,-4.9629,-4.9744,-4.9827,-4.9822,-4.9913,-4.9984,-5.0091,-5.0172,-5.0262,-5.0394,-5.0502,-5.0573,-5.0683,-5.0747,-5.0751,-5.0775,-5.0771,-5.0783,-5.0635,-5.0603,-5.0769,-5.0769,-5.0769,-5.0769,-5.0769,-5.0769,-4.958,-4.9713,-4.9744,-4.9911,-4.9966,-5.0086,-5.0138,-5.021,-5.0275,-5.0421,-5.0511,-5.0557,-5.0635,-5.075,-5.085,-5.0868,-5.0908,-5.0933,-5.095,-5.081,-5.0793,-5.0777,-5.0747,-5.0941,-5.0942,-5.1091,-5.1092,-5.1093]}]]